Terug naar catalogus

CZ-4 DEB

ActiefSSO
NORAD 28069·DEBRIS·🇨🇳 China

Gelanceerd Oct 14, 1999 vanaf Taiyuan Satellite Launch Center

Loading…

Volgende Passages (komende 24 uur)

TLE

VersSource: Space-Track

Epoch: Sep 14, 2026, 09:49 UTC

1 28069U 99057MZ  26257.40952224  .00001034  00000-0  24478-3 0  9991
2 28069  98.4701 321.2422 0068586 183.8634 176.2042 14.54873733718652

Volg CZ-4 DEB in realtime met AllMySat

Download on the App Store